www.pogodaiklimat.ru

Погода и климат >> Архив погоды >> Россия >> Липецкая область >> Конь-Колодезь


ПОГОДА в Конь-Колодезе

  • Прогноз погоды в Конь-Колодезе
  • Монитор погоды в Конь-Колодезе

АРХИВ ПОГОДЫ в Конь-Колодезе

Время (UTC), дата Ветер
(напр.,м/с)
 
Видим.   Явления Облачность Т
(С)
Тd
(С)
f
(%)
Тe
(С)
Тes
(С)
Комфортность P
(гПа)
Po
(гПа)
Тmin
(С)
Tmax
(С)
R
(мм)
R24
(мм)
S
(см)
00 15.09 СЗ 1 10 км ясно +6.8 +3.9 82 +6 +6 1021.0 1004.0
03 15.09 СЗ 1 10 км 8/3 1000 м
[Sc Ac trans Ci fib]
+5.9 +3.0 82 +5 +5 1020.1 1003.1 +5.1
06 15.09 СЗ 2 10 км 7 баллов +10.7 +4.4 65 +10 +11 1020.7 1004.0
09 15.09 СЗ 5
{11}
10 км 6/6 1000 м
[Cu hum]
+15.9 +2.9 42 +15 +17 1019.3 1002.9
12 15.09 З 5
{10}
10 км 8/4 1000 м
[Cu hum Ci fib]
+18.2 +1.5 33 +18 +19 1018.0 1001.8
15 15.09 З 2 20 км 9/0
[Ci fib]
+16.1 +1.1 36 +16 +16 1016.6 1000.3 +18.4
18 15.09 Ю 2 10 км 9/0
[Ci fib]
+12.5 +0.9 45 +12 +12 1016.6 1000.0
21 15.09 ЮЗ 4 10 км 9/8 600 м
[Cb calv Ci fib]
+13.5 +1.1 43 +12 +12 1013.5 997.1
00 16.09 Ю 3 10 км 9/9 600 м
[Cb calv]
+12.3 +2.2 50 +11 +11 1012.5 996.0
03 16.09 ЮЗ 5 10 км 9/8 600 м
[Cb calv Ac trans Ci fib]
+12.1 +2.5 52 +10 +10 1009.1 992.6 +11.5
06 16.09 ЮЗ 4 10 км 10/10 1000 м
[Sc]
+13.9 +4.2 52 +13 +13 1008.4 992.0 +11.4
09 16.09 З 5
{11}
10 км 10/10 600 м
[Cb calv]
+15.1 +3.2 45 +14 +14 1006.1 989.9
12 16.09 -13
{13}
10 км н/о +19.2 +3.6 36 +19 +19 1005.0 989.0
15 16.09 З 7-12
{14}
10 км 8/4 600 м
[Cb calv Ci fib]
+18.4 +4.3 39 +18 +18 1004.6 988.5 +19.4
18 16.09 ЮЗ 3 10 км 8/0
[Ac trans Ci fib]
+15.6 +6.3 54 +15 +15 1005.5 989.3
21 16.09 З 1 10 км 9/0
[Ci fib]
+12.8 +6.5 65 +13 +13 1005.5 989.1
00 17.09 З 1 10 км 9/0
[Ci fib]
+10.7 +5.2 69 +11 +11 1005.8 989.3
03 17.09 Ю 2 4000 м дымка 8/1 1000 м
[Sc Ac trans Ci fib]
+7.3 +5.3 87 +5 +5 1004.7 988.1 +7.1
06 17.09 З 3 10 км 4/0
[Ac trans Ci fib]
+12.5 +4.7 59 +11 +13 1005.7 989.3 +7.0
09 17.09 СЗ 7-11
{13}
10 км 9/8 600 м
[Cu hum Ci fib]
+18.8 +1.3 31 +18 +19 1002.7 986.7
12 17.09 З 8-12
{14}
10 км 8/6 600 м
[Cb calv Ci fib]
+18.3 -1.9 25 +17 +18 1002.5 986.5
15 17.09 З 4
{12}
10 км 8/4 600 м
[Cb calv Ci fib]
+16.2 +0.4 34 +16 +16 1002.7 986.6 +18.8
18 17.09 З 1 10 км 4/4 1000 м
[Sc]
+10.9 +3.0 58 +11 +11 1004.5 988.0
21 17.09 З 2 10 км 8/0
[Ac trans Ci fib]
+9.7 +2.5 61 +8 +8 1003.9 987.5
00 18.09 Ю 1 10 км 9 баллов +8.1 +3.2 71 +8 +8 1004.6 988.0
03 18.09 ЮВ 2 10 км 10/5 1000 м
[Sc Ac As]
+6.9 +2.6 74 +5 +5 1003.2 986.6 +6.4
06 18.09 Ю 3 10 км 9/8 600 м
[Cb calv Ac trans]
+10.1 +2.9 61 +8 +9 1003.2 986.7
09 18.09 Ю 4 10 км в посл. час ливневой дождь 9/8 600 м
[Cb cap Ac trans]
+10.2 +7.6 84 +8 +8 1000.7 984.3
12 18.09 ЮЗ 3
{12}
10 км слаб. ливневой дождь 9/9 600 м
[Cb cap]
+14.6 +5.0 53 +14 +14 997.9 981.8
15 18.09 З 3 10 км в посл. час ливневой дождь 9/8 600 м
[Cb cap Ac trans]
+10.3 +7.4 82 +8 +8 998.1 981.8 +16.5 1
18 18.09 З 6-11
{11}
10 км {ливн. осадки} 8/8 600 м
[Cb calv]
+8.4 +3.8 73 +5 +5 999.2 982.7
21 18.09 З 4
{11}
10 км 8/8 600 м
[Cb calv]
+7.5 +4.5 81 +4 +4 999.7 983.1
00 19.09 З 5
{10}
4000 м слаб. ливневой дождь 10/10 600 м
[Cb cap]
+8.0 +7.1 94 +4 +4 1003.0 986.5
03 19.09 З 4
{10}
4000 м дымка {ливн. осадки} 10/10 600 м
[Sc]
+8.7 +6.8 88 +6 +6 1006.7 990.1 +7.1 1
06 19.09 З 4 10 км {ливн. осадки} 9/9 1000 м
[Cb calv]
+9.5 +6.8 83 +7 +7 1011.4 994.7
09 19.09 З 4
{11}
10 км 9/8 1000 м
[Cb calv Ac trans]
+12.4 +6.1 65 +11 +11 1011.9 995.4
12 19.09 З 5
{10}
10 км 9/9 600 м
[Cb calv]
+12.8 +5.3 60 +11 +11 1012.7 996.2
15 19.09 СЗ 2 20 км {ливн. осадки} 9/9 600 м
[Cb cap]
+10.5 +7.4 81 +9 +9 1014.2 997.6 +14.6 1
18 19.09 З 1 10 км {ливн. осадки} 8/6 600 м
[Cb calv Ac trans]
+8.0 +5.6 85 +7 +7 1016.8 1000.0
21 19.09 Ю 2 10 км {ливн. осадки} 9/9 600 м
[Cb calv]
+7.1 +5.8 91 +5 +5 1015.1 998.3
00 20.09 З 1 10 км {ливн. осадки} 6/1 600 м
[Sc Ac trans]
+5.9 +4.7 92 +5 +5 1015.4 998.5
03 20.09 Ю 1 4000 м дымка 9/9 600 м
[Sc]
+5.2 +4.5 95 +4 +4 1015.1 998.1 +5.1 0.7
06 20.09 З 3 4000 м дымка 9/9 300 м
[St]
+6.8 +5.4 91 +4 +4 1015.6 998.7
09 20.09 З 3 10 км 10/10 600 м
[Cb calv]
+9.4 +6.1 80 +7 +7 1014.6 997.9
12 20.09 З 4 10 км 9/9 600 м
[Cb calv]
+11.9 +4.1 59 +10 +10 1015.3 998.7
15 20.09 СВ 2 10 км 6/6 600 м
[Cb calv]
+11.0 +5.3 68 +10 +10 1013.3 996.7 +13.6
18 20.09 ЮВ 1 4000 м дымка 9 баллов +5.7 +5.0 95 +4 +4 1015.7 998.7
21 20.09 З 1 4000 м дымка 9/9 600 м
[Cb calv]
+7.5 +4.8 83 +7 +7 1013.9 997.2
00 21.09 С 2 4000 м дымка 8/6 1000 м
[Sc Ci fib]
+6.1 +4.2 88 +4 +4 1014.0 997.2
03 21.09 С 1 4000 м дымка 8/8 1000 м
[Sc]
+2.8 +2.0 94 +1 +1 1014.4 997.3 +2.8
06 21.09 СЗ 3 10 км 7 баллов +6.8 +4.5 85 +4 +5 1015.6 998.7 +2.6
09 21.09 СЗ 4 10 км 9/8 600 м
[Cb calv Ac trans]
+10.5 +2.7 58 +8 +9 1014.9 998.2
12 21.09 СЗ 4 10 км {ливн. осадки} 6/5 600 м
[Cb calv Ci fib]
+11.5 -0.2 44 +10 +11 1014.5 997.9
15 21.09 С 3 10 км 8/3 600 м
[Sc Ac trans Ci fib]
+10.5 -0.9 45 +9 +9 1014.1 997.5 +12.3 0.0
18 21.09 СЗ 1 10 км 4 балла +5.3 -0.5 66 +4 +4 1015.7 998.7
21 21.09 З 2 10 км 9/9 1000 м
[Sc]
+3.6 -0.2 76 +1 +1 1013.3 996.3

 

Местоположение метеостанции Конь-Колодезь (Липецкая область, Россия): широта 52.15 долгота 39.15 высота над уровнем моря 138 м.

В архиве по умолчанию представлена погода в Конь-Колодезе за последнюю неделю. Архивные данные за месяц целиком и за предыдущие месяцы, начиная с января 2011 года, Вы можете получить, выбрав интересующий диапазон дат из раскрывающегося списка и нажав кнопку "Ввод!".


*Определитесь, кто Вы:
робот инопланетянин человек

Внимание! Время в таблицах - всемирное. Для получения местного времени необходимо прибавить поправку, которая равна 3 ч.

Смотрите также архив погоды в соседних городах и на ближайших метеорологических станциях:

Погода в Воронеже (Воронежская область, Россия) (50 км)
Погода в Липецке (Липецкая область, Россия) (66 км)
Погода в Ельце (Липецкая область, Россия) (68 км)
Погода в Нижнедевицке (Воронежская область, Россия) (85 км)
Погода в Ливнах (Орловская область, Россия) (110 км)
Погода в Анне (Воронежская область, Россия) (115 км)
Погода в Совхозе им. Ленина (Тамбовская область, Россия) (117 км)
Погода в Льве Толстом (Липецкая область, Россия) (121 км)
Погода в Мичуринске (Тамбовская область, Россия) (121 км)
Погода в Старом Осколе (Белгородская область, Россия) (129 км)

Пояснения к столбцам:

Ветер - указаны скорость ветра в м/с - средняя за 10 мин, порывы в срок и между сроками (в фигурных скобках) и направление, откуда дует ветер: С - северный, СВ - северо-восточный, В - восточный, ЮВ - юго-восточный, Ю - южный, ЮЗ - юго-западный, З - западный, СЗ - северо-западный.
Видимость - горизонтальная дальность видимости в метрах или километрах. При видимости от 1 до 10 км при отсутствии осадков обычно наблюдается дымка, при ухудшении видимости до 1 км и менее - туман. В сухую погоду видимость может ухудшаться дымом, пылью или мглою.
Явления - указаны атмосферные явления, наблюдавшиеся в срок или в последний час перед сроком; фигурными скобками обозначены явления, наблюдавшиеся между сроками (за 1-3 часа до срока); квадратными скобками обозначены град или гололедные отложения с указанием их диаметра в мм.
Облачность - указаны через наклонную черту общая и нижняя облачность в баллах и высота нижней границы облаков в метрах; квадратными скобками обозначены формы облаков: Ci - перистые, Cs - перисто-слоистые, Cc - перисто-кучевые, Ac - высококучевые, As - высокослоистые, Sc - слоисто-кучевые, Ns - слоисто-дождевые, Cu - кучевые, Cb - кучево-дождевые. Подробнее классификацию облаков см. в Атласе облаков (PDF).
T - Температура воздуха - температура, измеренная на высоте 2 м над землей.
Td - Температура точки росы - температура, при понижении до которой содержащийся в воздухе водяной пар достигнет насыщения.
f - Относительная влажность воздуха - влажноcть воздуха, измеренная на высоте 2 м над землей.
Te - Эффективная температура - температура, которую ощущает одетый по сезону человек в тени. Характеристика душности погоды. При расчете учитывается влияние влажности воздуха и скорости ветра на теплоощущения человека.
Tes - Эффективная температура на солнце - температура, которую ощущает человек, с поправкой на солнечный нагрев. Характеристика знойности погоды. Зависит от высоты солнца над горизонтом, облачности и скорости ветра. Ночью, в пасмурную погоду, а также при ветре 12 м/с и более поправка равна нулю.
P - Атмосферное давление - приведенное к уровню моря атмосферное давление.
Po - Атмосферное давление - измеренное на уровне метеостанции атмосферное давление.
Tmin - Минимальная температура - минимум температуры воздуха на высоте 2 м над землей.
Tmax - Максимальная температура - максимум температуры воздуха на высоте 2 м над землей.
R - Количество осадков - Количество выпавших осадков за период времени, мм. При наведении курсора мыши на число - период времени, за который выпало указанное количество осадков.
R24 - Количество осадков - Количество выпавших осадков за 24 часа, мм.
S - Снежный покров - Высота снежного покрова, см. При наведении курсора мыши на число - состояние снежного покрова и степень покрытия местности в баллах.